Tracking 19246 objects as of 21-Sep-2018
HD Live streaming from Space Station
objects crossing your sky now

FENGYUN 1C DEB

Track FENGYUN 1C DEB now!
10-day predictions


NORAD ID: 30679
Int'l Code: 1999-025AQM
Perigee: 853.5 km
Apogee: 1,114.6 km
Inclination: 99.6 °
Period: 104.6 minutes
Semi major axis: 7355 km
RCS: 0.0204 m2 (small)
Launch date: May 10, 1999
Source: People's Republic of China (PRC)
Launch site: Taiyaun Space Center, China (TSC)

Note: This is SATELLITE DEBRIS
aabbcc
Your satellite tracking list
Your tracking list is empty




NASA's NSSDC Master Catalog

Two Line Element Set (TLE):
1 30679U 99025AQM 18263.57162646 +.00000189 +00000-0 +21398-3 0  9991
2 30679 099.6297 273.2425 0177532 150.7273 334.7521 13.76335335581721
Source of the keplerian elements: AFSPC